CW0988 Weather Reports


time (UTC)temp
F
wind
direction
speed
knots
gust
knots
rain 1hr
in
rain 24hr
in
rain mn
in
humidity
%
barometer
mb
20260507095503 56 223 2.6 3.5 0.00 0.00 0.00 62 1014.2
20260507095007 56 213 1.7 3.5 0.00 0.00 0.00 62 1014.3
20260507094523 56 219 2.6 4.3 0.00 0.00 0.00 64 1014.3
20260507094007 56 217 2.6 4.3 0.00 0.00 0.00 64 1014.2
20260507093503 55 225 2.6 5.2 0.00 0.00 0.00 64 1014.2
20260507093028 55 227 2.6 5.2 0.00 0.00 0.00 64 1014.3
20260507092509 55 207 5.2 6.1 0.00 0.00 0.00 64 1014.4
20260507092009 55 204 4.3 6.1 0.00 0.00 0.00 64 1014.4
20260507091537 54 205 5.2 6.1 0.00 0.00 0.00 65 1014.4
20260507091007 54 199 4.3 7.8 0.00 0.00 0.00 64 1014.4
20260507090510 55 192 5.2 7.8 0.00 0.00 0.00 63 1014.4
20260507090034 55 198 6.1 7.0 0.00 0.00 0.00 63 1014.4
20260507085503 56 219 3.5 5.2 0.00 0.00 0.00 1014.4
20260507085007 57 218 3.5 5.2 0.00 0.00 0.00 1014.3
20260507084529 59 183 2.6 3.5 0.00 0.00 0.00 55 1014.3
20260507084003 60 169 0.0 5.2 0.00 0.00 0.00 55 1014.3
20260507083509 61 172 2.6 5.2 0.00 0.00 0.00 54 1014.3
20260507083017 62 249 0.0 2.6 0.00 0.00 0.00 52 1014.3
20260507082508 62 298 0.0 3.5 0.00 0.00 0.00 52 1014.3
20260507082007 62 294 1.7 6.1 0.00 0.00 0.00 50 1014.2
20260507081503 62 299 3.5 6.1 0.00 0.00 0.00 51 1014.1
20260507081004 62 263 2.6 5.2 0.00 0.00 0.00 51 1014.2
20260507080502 62 270 1.7 6.1 0.00 0.00 0.00 51 1014.3
20260507080013 62 207 4.3 6.1 0.00 0.00 0.00 52 1014.4
20260507075506 61 197 4.3 6.1 0.00 0.00 0.00 52 1014.5
20260507075010 62 201 2.6 3.5 0.00 0.00 0.00 52 1014.3
20260507074524 62 196 1.7 3.5 0.00 0.00 0.00 51 1014.2
20260507074006 62 157 1.7 3.5 0.00 0.00 0.00 51 1014.2
20260507073511 62 171 0.9 1.7 0.00 0.00 0.00 51 1014.2
20260507073009 62 165 0.9 3.5 0.00 0.00 0.00 50 1014.2
20260507072506 62 152 0.0 4.3 0.00 0.00 0.00 50 1014.0
20260507072006 62 184 1.7 4.3 0.00 0.00 0.00 49 1014.0
20260507071524 61 225 2.6 6.1 0.00 0.00 0.00 49 1014.0
20260507071008 62 194 1.7 6.1 0.00 0.00 0.00 50 1013.9
20260507070510 62 259 1.7 3.5 0.00 0.00 0.00 50 1013.7
20260507070025 63 274 1.7 3.5 0.00 0.00 0.00 50 1013.6
20260507065508 64 48 2.6 3.5 0.00 0.00 0.00 47 1013.7
20260507065004 65 29 0.9 5.2 0.00 0.00 0.00 46 1013.8
20260507064511 66 280 0.0 7.0 0.00 0.00 0.00 44 1013.6
20260507064004 66 288 3.5 8.7 0.00 0.00 0.00 44 1013.5
20260507063508 66 294 5.2 10.4 0.00 0.00 0.00 43 1013.3
20260507063020 67 280 6.1 10.4 0.00 0.00 0.00 41 1013.2
20260507062509 68 281 5.2 10.4 0.00 0.00 0.00 41 1013.1
20260507062009 69 277 6.1 12.2 0.00 0.00 0.00 39 1013.1
20260507061526 69 286 7.8 13.0 0.00 0.00 0.00 40 1013.3
20260507061004 69 279 9.6 12.2 0.00 0.00 0.00 38 1013.4
20260507060505 69 297 5.2 7.8 0.00 0.00 0.00 37 1013.6
20260507060022 69 284 1.7 4.3 0.00 0.00 0.00 36 1013.6
20260507055509 69 263 1.7 7.0 0.00 0.00 0.00 35 1013.5
20260507055008 69 276 2.6 8.7 0.00 0.00 0.00 35 1013.5
20260507054528 69 292 2.6 8.7 0.00 0.00 0.00 35 1013.5
20260507054010 69 306 4.3 9.6 0.00 0.00 0.00 35 1013.4
20260507053508 69 300 5.2 9.6 0.00 0.00 0.00 35 1013.3
20260507053012 70 305 7.0 8.7 0.00 0.00 0.00 34 1013.4
20260507052507 70 313 6.1 7.0 0.00 0.00 0.00 33 1013.5
20260507052004 70 300 3.5 7.0 0.00 0.00 0.00 33 1013.5
20260507051522 70 298 5.2 7.8 0.00 0.00 0.00 33 1013.6
20260507051007 70 292 5.2 7.8 0.00 0.00 0.00 33 1013.4
20260507050507 70 296 5.2 7.0 0.00 0.00 0.00 33 1013.4
20260507050039 70 286 2.6 8.7 0.00 0.00 0.00 34 1013.3
20260507045507 70 298 5.2 8.7 0.00 0.00 0.00 34 1013.2
20260507045003 70 298 7.0 8.7 0.00 0.00 0.00 34 1013.2
20260507044517 71 299 6.1 7.8 0.00 0.00 0.00 33 1013.2
20260507044009 71 302 5.2 7.8 0.00 0.00 0.00 32 1013.2
20260507043506 71 305 2.6 3.5 0.00 0.00 0.00 32 1013.2
20260507043022 72 291 0.9 2.6 0.00 0.00 0.00 32 1013.2
20260507042507 72 256 0.0 2.6 0.00 0.00 0.00 31 1013.1
20260507042010 72 259 0.0 4.3 0.00 0.00 0.00 31 1013.1
20260507041529 72 273 1.7 4.3 0.00 0.00 0.00 31 1013.0
20260507041010 72 288 0.0 1.7 0.00 0.00 0.00 31 1012.9
20260507040504 72 319 0.0 3.5 0.00 0.00 0.00 31 1012.9
20260507040021 72 319 0.0 3.5 0.00 0.00 0.00 31 1012.8
20260507035507 72 312 1.7 6.1 0.00 0.00 0.00 31 1012.7
20260507035008 73 275 1.7 6.1 0.00 0.00 0.00 31 1012.7
20260507034526 73 295 2.6 8.7 0.00 0.00 0.00 31 1012.7
20260507034008 73 275 4.3 8.7 0.00 0.00 0.00 31 1012.7
20260507033509 73 269 3.5 7.0 0.00 0.00 0.00 33 1012.7
20260507033028 74 280 2.6 6.1 0.00 0.00 0.00 31 1012.7
20260507032506 74 298 1.7 7.8 0.00 0.00 0.00 30 1012.7
20260507032008 74 300 4.3 7.8 0.00 0.00 0.00 30 1012.7
20260507031522 74 256 3.5 9.6 0.00 0.00 0.00 31 1012.7
20260507031009 74 280 4.3 9.6 0.00 0.00 0.00 30 1012.7
20260507030512 75 273 2.6 7.0 0.00 0.00 0.00 32 1012.7
20260507030007 75 292 2.6 7.0 0.00 0.00 0.00 31 1012.7
20260507025504 75 283 1.7 7.0 0.00 0.00 0.00 30 1012.6
20260507025004 75 278 1.7 6.1 0.00 0.00 0.00 31 1012.5
20260507024517 75 305 2.6 6.1 0.00 0.00 0.00 29 1012.4
20260507024008 75 302 1.7 4.3 0.00 0.00 0.00 29 1012.3
20260507023508 75 284 0.0 2.6 0.00 0.00 0.00 29 1012.3
20260507023025 75 304 0.9 3.5 0.00 0.00 0.00 29 1012.3
20260507022508 76 298 1.7 5.2 0.00 0.00 0.00 28 1012.2
20260507022005 76 289 2.6 6.1 0.00 0.00 0.00 29 1012.2
20260507021509 76 284 2.6 6.1 0.00 0.00 0.00 29 1012.2
20260507021003 76 280 0.9 6.1 0.00 0.00 0.00 29 1012.2
20260507020506 77 285 2.6 8.7 0.00 0.00 0.00 29 1012.2
20260507020021 77 273 4.3 8.7 0.00 0.00 0.00 28 1012.2
20260507015507 77 309 2.6 12.2 0.00 0.00 0.00 29 1012.2
20260507015012 77 312 7.0 13.9 0.00 0.00 0.00 28 1012.2
20260507014529 78 302 9.6 13.9 0.00 0.00 0.00 27 1012.2
20260507014008 78 299 8.7 15.6 0.00 0.00 0.00 27 1012.2
20260507013504 78 315 7.8 15.6 0.00 0.00 0.00 27 1012.2
20260507013016 79 297 7.8 13.0 0.00 0.00 0.00 26 1012.2
20260507012506 79 296 7.8 15.6 0.00 0.00 0.00 26 1012.2
20260507012012 79 304 9.6 15.6 0.00 0.00 0.00 26 1012.2
20260507011526 79 301 12.2 16.5 0.00 0.00 0.00 25 1012.2
20260507011010 79 306 11.3 16.5 0.00 0.00 0.00 26 1012.1
20260507010513 80 298 10.4 14.8 0.00 0.00 0.00 26 1012.1
20260507010040 80 311 10.4 14.8 0.00 0.00 0.00 27 1012.1
20260507005506 80 267 7.0 16.5 0.00 0.00 0.00 26 1012.0
20260507005007 81 293 10.4 17.4 0.00 0.00 0.00 26 1012.0
20260507004521 81 291 11.3 20.0 0.00 0.00 0.00 25 1011.9
20260507004008 81 314 13.9 20.0 0.00 0.00 0.00 25 1011.8
20260507003511 81 279 11.3 18.2 0.00 0.00 0.00 27 1011.7
20260507003028 82 285 11.3 20.9 0.00 0.00 0.00 26 1011.6
20260507002508 82 323 14.8 20.9 0.00 0.00 0.00 27 1011.4
20260507002009 82 312 11.3 20.0 0.00 0.00 0.00 27 1011.3
20260507001515 83 311 11.3 22.6 0.00 0.00 0.00 26 1011.2
20260507001004 83 299 14.8 22.6 0.00 0.00 0.00 25 1011.1
20260507000505 83 298 15.6 22.6 0.00 0.00 0.00 25 1011.0
20260507000031 84 303 13.9 20.9 0.00 0.00 0.00 23 1010.9
20260506235509 84 300 15.6 20.0 0.00 0.00 0.00 23 1010.7
20260506235007 85 282 12.2 19.1 0.00 0.00 0.00 23 1010.6
20260506234528 85 298 13.9 21.7 0.00 0.00 0.00 24 1010.5
20260506234010 85 296 15.6 21.7 0.00 0.00 0.00 24 1010.6
20260506233504 85 313 15.6 20.9 0.00 0.00 0.00 25 1010.5
20260506233020 86 311 16.5 20.9 0.00 0.00 0.00 24 1010.5
20260506232508 86 328 14.8 18.2 0.00 0.00 0.00 25 1010.4
20260506232010 86 330 11.3 16.5 0.00 0.00 0.00 27 1010.5
20260506231525 86 299 4.3 10.4 0.00 0.00 0.00 27 1010.5
20260506231009 86 314 6.1 10.4 0.00 0.00 0.00 26 1010.6
20260506230510 86 267 5.2 10.4 0.00 0.00 0.00 24 1010.6
20260506230029 86 281 4.3 7.0 0.00 0.00 0.00 26 1010.6
20260506225504 86 352 2.6 6.1 0.00 0.00 0.00 27 1010.7
20260506225008 86 14 3.5 7.0 0.00 0.00 0.00 26 1010.9
20260506224522 86 327 3.5 7.0 0.00 0.00 0.00 25 1011.0
20260506224008 86 311 0.9 7.0 0.00 0.00 0.00 25 1011.0
20260506223508 86 300 4.3 11.3 0.00 0.00 0.00 26 1011.1
20260506223025 86 311 4.3 11.3 0.00 0.00 0.00 25 1011.2
20260506222507 85 334 5.2 9.6 0.00 0.00 0.00 27 1011.3
20260506222009 85 279 3.5 9.6 0.00 0.00 0.00 25 1011.3
20260506221515 85 360 2.6 7.0 0.00 0.00 0.00 25 1011.4
20260506221008 85 307 3.5 7.0 0.00 0.00 0.00 26 1011.4
20260506220509 85 300 1.7 5.2 0.00 0.00 0.00 27 1011.4
20260506220025 84 305 3.5 8.7 0.00 0.00 0.00 25 1011.4
20260506215509 84 315 6.1 11.3 0.00 0.00 0.00 25 1011.4
20260506215008 85 10 3.5 11.3 0.00 0.00 0.00 28 1011.4
20260506214529 85 339 6.1 9.6 0.00 0.00 0.00 25 1011.5
20260506214012 85 174 0.9 3.5 0.00 0.00 0.00 25 1011.5
20260506213509 84 65 0.9 7.0 0.00 0.00 0.00 24 1011.5
20260506213022 84 21 4.3 8.7 0.00 0.00 0.00 26 1011.5
20260506212506 84 341 2.6 12.2 0.00 0.00 0.00 27 1011.6
20260506212004 85 324 8.7 12.2 0.00 0.00 0.00 25 1011.6
20260506211507 85 311 7.0 12.2 0.00 0.00 0.00 30 1011.5
20260506211004 85 352 4.3 9.6 0.00 0.00 0.00 25 1011.7
20260506210504 85 12 3.5 9.6 0.00 0.00 0.00 27 1011.8
20260506210030 85 36 3.5 11.3 0.00 0.00 0.00 25 1011.7
20260506205507 85 334 3.5 13.9 0.00 0.00 0.00 26 1011.7
20260506205005 85 346 8.7 15.6 0.00 0.00 0.00 24 1011.7
20260506204528 85 352 10.4 15.6 0.00 0.00 0.00 26 1011.7
20260506204004 85 315 9.6 13.9 0.00 0.00 0.00 26 1011.6
20260506203504 85 313 3.5 10.4 0.00 0.00 0.00 23 1011.7
20260506203007 85 290 2.6 6.1 0.00 0.00 0.00 28 1011.6
20260506202503 85 111 0.9 7.0 0.00 0.00 0.00 26 1011.7
20260506202009 84 38 1.7 13.0 0.00 0.00 0.00 24 1011.6
20260506201527 84 261 7.8 13.0 0.00 0.00 0.00 30 1011.6
20260506201009 84 248 3.5 11.3 0.00 0.00 0.00 31 1011.5
20260506200508 83 169 7.8 13.0 0.00 0.00 0.00 29 1011.5
20260506200031 83 140 7.0 15.6 0.00 0.00 0.00 33 1011.6
20260506195507 83 126 10.4 15.6 0.00 0.00 0.00 31 1011.7
20260506195004 83 123 8.7 15.6 0.00 0.00 0.00 31 1011.8
20260506194512 83 151 8.7 15.6 0.00 0.00 0.00 31 1011.9
20260506194008 82 152 7.0 14.8 0.00 0.00 0.00 31 1011.9
20260506193506 82 150 7.8 14.8 0.00 0.00 0.00 34 1012.0
20260506193038 82 162 8.7 13.9 0.00 0.00 0.00 33 1012.0
20260506192512 81 158 7.8 14.8 0.00 0.00 0.00 35 1012.2
20260506192008 81 117 9.6 14.8 0.00 0.00 0.00 33 1012.3
20260506191510 81 107 8.7 15.6 0.00 0.00 0.00 34 1012.4
20260506191004 80 141 11.3 15.6 0.00 0.00 0.00 37 1012.4
20260506190506 80 123 7.8 14.8 0.00 0.00 0.00 36 1012.4
20260506190020 80 112 7.0 13.0 0.00 0.00 0.00 37 1012.5
20260506185508 80 125 8.7 13.0 0.00 0.00 0.00 36 1012.6
20260506185008 79 163 6.1 11.3 0.00 0.00 0.00 37 1012.5
20260506184531 79 134 9.6 13.0 0.00 0.00 0.00 38 1012.5
20260506184009 79 128 8.7 13.0 0.00 0.00 0.00 41 1012.6
20260506183504 79 157 6.1 10.4 0.00 0.00 0.00 37 1012.7
20260506183010 78 161 6.1 11.3 0.00 0.00 0.00 38 1012.8
20260506182506 78 136 7.8 11.3 0.00 0.00 0.00 40 1012.8
20260506182011 78 137 6.1 11.3 0.00 0.00 0.00 42 1012.9
20260506181535 77 99 3.5 10.4 0.00 0.00 0.00 41 1013.0
20260506181007 77 112 6.1 10.4 0.00 0.00 0.00 44 1013.0
20260506180508 77 126 7.0 9.6 0.00 0.00 0.00 41 1013.0
20260506180028 77 146 6.1 10.4 0.00 0.00 0.00 40 1013.0
20260506175507 77 136 5.2 11.3 0.00 0.00 0.00 41 1013.1
20260506175004 76 143 4.3 11.3 0.00 0.00 0.00 38 1013.1
20260506174516 77 123 7.8 10.4 0.00 0.00 0.00 42 1013.1
20260506174002 76 106 4.3 9.6 0.00 0.00 0.00 44 1013.1
20260506173503 76 101 6.1 10.4 0.00 0.00 0.00 39 1013.2
20260506173004 76 125 9.6 10.4 0.00 0.00 0.00 43 1013.2
20260506172504 76 102 3.5 8.7 0.00 0.00 0.00 45 1013.2
20260506172005 76 185 3.5 7.0 0.00 0.00 0.00 43 1013.2
20260506171516 75 155 3.5 7.0 0.00 0.00 0.00 43 1013.2
20260506171003 75 91 4.3 6.1 0.00 0.00 0.00 44 1013.3
20260506170508 76 107 3.5 5.2 0.00 0.00 0.00 42 1013.4
20260506170006 76 63 1.7 2.6 0.00 0.00 0.00 42 1013.5
20260506165506 76 63 0.9 2.6 0.00 0.00 0.00 41 1013.5
20260506165003 76 70 0.0 1.7 0.00 0.00 0.00 39 1013.6
20260506164507 75 70 0.9 1.7 0.00 0.00 0.00 38 1013.7
20260506164002 75 75 0.9 1.7 0.00 0.00 0.00 40 1013.6
20260506163504 74 98 0.0 1.7 0.00 0.00 0.00 38 1013.7
20260506163020 74 94 0.9 1.7 0.00 0.00 0.00 44 1013.7
20260506162509 73 337 0.0 2.6 0.00 0.00 0.00 40 1013.8
20260506162002 73 352 1.7 4.3 0.00 0.00 0.00 41 1013.8
20260506161503 73 323 1.7 4.3 0.00 0.00 0.00 40 1013.8
20260506161006 73 20 0.9 2.6 0.00 0.00 0.00 46 1013.8
20260506160503 73 340 0.9 2.6 0.00 0.00 0.00 47 1013.9
20260506160010 72 306 0.0 1.7 0.00 0.00 0.00 44 1013.8
20260506155504 72 333 0.0 3.5 0.00 0.00 0.00 46 1013.9
20260506155006 71 331 0.9 3.5 0.00 0.00 0.00 43 1013.8
20260506154521 71 325 1.7 3.5 0.00 0.00 0.00 44 1013.8
20260506154003 70 334 3.5 3.5 0.00 0.00 0.00 46 1013.8
20260506153504 70 335 1.7 2.6 0.00 0.00 0.00 45 1013.8
20260506153004 70 262 0.9 2.6 0.00 0.00 0.00 49 1013.8
20260506152506 69 65 0.0 1.7 0.00 0.00 0.00 51 1013.7
20260506152006 68 65 0.0 1.7 0.00 0.00 0.00 55 1013.7
20260506151512 67 65 0.0 0.9 0.00 0.00 0.00 62 1013.8
20260506151008 66 106 0.9 1.7 0.00 0.00 0.00 63 1013.8
20260506150506 65 107 0.0 1.7 0.00 0.00 0.00 68 1013.9
20260506150013 64 107 0.0 1.7 0.00 0.00 0.00 68 1013.8
20260506145503 63 106 0.0 1.7 0.00 0.00 0.00 66 1013.9
20260506145002 62 106 0.0 1.7 0.00 0.00 0.00 67 1013.9
20260506144508 61 107 0.0 1.7 0.00 0.00 0.00 68 1013.9
20260506144004 60 106 0.0 1.7 0.00 0.00 0.00 68 1013.9
20260506143504 60 106 0.0 2.6 0.00 0.00 0.00 71 1013.9
20260506143024 59 115 1.7 2.6 0.00 0.00 0.00 68 1013.8
20260506142507 59 101 1.7 2.6 0.00 0.00 0.00 69 1013.8
20260506142008 59 69 0.0 0.0 0.00 0.00 0.00 69 1013.8
20260506141504 58 69 0.0 0.0 0.00 0.00 0.00 69 1013.8
20260506141003 57 69 0.0 0.0 0.00 0.00 0.00 70 1013.7
20260506140503 56 69 0.0 0.0 0.00 0.00 0.00 70 1013.7
20260506140018 56 69 0.0 0.0 0.00 0.00 0.00 1013.6
20260506135507 55 69 0.0 0.0 0.00 0.00 0.00 72 1013.6
20260506135006 55 69 0.0 0.0 0.00 0.00 0.00 72 1013.6
20260506134523 54 59 0.0 0.0 0.00 0.00 0.00 72 1013.5
20260506134012 54 59 0.0 0.0 0.00 0.00 0.00 73 1013.4
20260506133506 53 59 0.0 0.0 0.00 0.00 0.00 73 1013.3
20260506133006 53 97 0.0 1.7 0.00 0.00 0.00 74 1013.2
20260506132503 53 97 0.0 1.7 0.00 0.00 0.00 72 1013.1
20260506132005 54 118 0.9 1.7 0.00 0.00 0.00 71 1013.1
20260506131515 54 360 0.0 1.7 0.00 0.00 0.00 70 1013.1
20260506131009 55 360 0.0 3.5 0.00 0.00 0.00 69 1013.0
20260506130509 55 360 0.9 7.0 0.00 0.00 0.00 67 1012.9
20260506130024 56 79 0.9 7.0 0.00 0.00 0.00 66 1012.9
20260506125503 55 225 3.5 6.1 0.00 0.00 0.00 67 1012.7
20260506125006 55 201 4.3 6.1 0.00 0.00 0.00 67 1012.7
20260506124510 55 198 4.3 7.0 0.00 0.00 0.00 67 1012.7
20260506124006 55 196 5.2 7.0 0.00 0.00 0.00 66 1012.7
20260506123508 55 202 6.1 7.0 0.00 0.00 0.00 66 1012.7
20260506123020 55 200 5.2 7.0 0.00 0.00 0.00 67 1012.6
20260506122505 55 205 4.3 6.1 0.00 0.00 0.00 65 1012.6
20260506122009 55 219 3.5 7.0 0.00 0.00 0.00 66 1012.7
20260506121508 55 213 5.2 7.0 0.00 0.00 0.00 67 1012.7
20260506121004 54 199 5.2 6.1 0.00 0.00 0.00 69 1012.6
20260506120508 54 200 2.6 6.1 0.00 0.00 0.00 70 1012.6
20260506120018 54 209 2.6 6.1 0.00 0.00 0.00 68 1012.6
20260506115504 56 196 5.2 6.1 0.00 0.00 0.00 67 1012.6
20260506115007 56 234 0.0 1.7 0.00 0.00 0.00 64 1012.5
20260506114528 56 234 0.0 1.7 0.00 0.00 0.00 65 1012.4
20260506114009 56 268 0.0 1.7 0.00 0.00 0.00 65 1012.4
20260506113508 56 268 0.9 1.7 0.00 0.00 0.00 65 1012.4
20260506113011 56 269 0.9 1.7 0.00 0.00 0.00 66 1012.6
20260506112505 55 155 0.9 1.7 0.00 0.00 0.00 67 1012.5
20260506112006 55 163 0.9 2.6 0.00 0.00 0.00 66 1012.5
20260506111520 56 216 0.9 2.6 0.00 0.00 0.00 66 1012.4
20260506111005 56 216 1.7 1.7 0.00 0.00 0.00 65 1012.4
20260506110511 56 216 0.9 1.7 0.00 0.00 0.00 65 1012.3
20260506110028 56 229 1.7 3.5 0.00 0.00 0.00 65 1012.4
20260506105508 56 229 1.7 4.3 0.00 0.00 0.00 65 1012.3
20260506105003 55 211 2.6 4.3 0.00 0.00 0.00 66 1012.2
20260506104533 56 190 3.5 4.3 0.00 0.00 0.00 65 1012.1
20260506104006 56 189 2.6 4.3 0.00 0.00 0.00 63 1012.0
20260506103507 57 106 0.9 1.7 0.00 0.00 0.00 62 1012.0
20260506103025 57 106 0.9 1.7 0.00 0.00 0.00 63 1012.0
20260506102507 56 106 0.0 0.9 0.00 0.00 0.00 65 1011.9
20260506102007 56 106 0.0 1.7 0.00 0.00 0.00 66 1011.9
20260506101526 57 106 0.0 1.7 0.00 0.00 0.00 68 1012.0
20260506101004 57 106 1.7 1.7 0.00 0.00 0.00 67 1012.0
20260506100506 58 48 0.9 1.7 0.00 0.00 0.00 66 1011.9
20260506100019 58 316 0.0 0.0 0.00 0.00 0.00 65 1011.9